Zurück zum Katalog

IRIDIUM 102

AktivKommunikationPO
NORAD 41920·PAYLOAD·🇺🇸 United States

Gestartet Jan 14, 2017 von Vandenberg Space Force Base

Loading…

Nächste Überflüge (nächste 24 Stunden)

TLE

AktuellSource: CelesTrak SupGP

Epoche: Sep 14, 2026, 09:11 UTC

1 41920C 17003D   26257.38298611  .00001595  00000+0  57024-3 0  2574
2 41920  86.3946  51.1153 0002086  93.6273  19.2590 14.34218821    17

Verfolge IRIDIUM 102 in Echtzeit mit AllMySat

Download on the App Store